Location: Meanaryar
(48.4161°N, 4.7315°W)
Time: 11:15:53
(UTC+00:00)

ATLAS 2AS CENTAUR R/B - Pass Details

Date: 18 September 2020
Orbit: 939 x 1273 km, 63.7° (Epoch: 19 October)

Event Time Altitude Azimuth Distance (km) Brightness Sun altitude
Rises 22:51:31 0° 239° (WSW) 4,215 5.8 -37.2°
Enters shadow 22:52:41 - 241° (WSW) 3,824 5.6 -37.2°
Exits shadow 22:59:05 36° 265° (W) 1,900 4.0 -37.7°
Maximum altitude 23:02:11 55° 321° (NW) 1,502 3.5 -37.9°
Drops below altitude 10° 23:09:50 10° 38° (NE) 3,201 5.5 -38.4°
Sets 23:12:39 0° 43° (NE) 4,133 6.1 -38.5°
